TimeEDT,TemperatureF,Dew PointF,Humidity,Sea Level PressureIn,VisibilityMPH,Wind Direction,Wind SpeedMPH,Gust SpeedMPH,PrecipitationIn,Events,Conditions,WindDirDegrees,DateUTC
12:36 AM,66.2,64.4,94,29.99,10.0,East,5.8,-,N/A,,Overcast,80,2013-06-06 04:36:00
12:53 AM,66.9,64.9,93,29.94,10.0,East,8.1,-,0.00,Rain,Light Rain,80,2013-06-06 04:53:00
1:01 AM,66.2,64.4,94,29.98,10.0,ESE,6.9,-,0.00,Rain,Light Rain,110,2013-06-06 05:01:00
1:26 AM,66.2,64.4,94,29.98,10.0,East,8.1,-,0.00,,Mostly Cloudy,100,2013-06-06 05:26:00
1:53 AM,66.9,64.9,93,29.94,10.0,ENE,8.1,-,0.00,Rain,Light Rain,70,2013-06-06 05:53:00
2:04 AM,66.2,64.4,94,29.99,10.0,East,6.9,-,0.00,Rain,Light Rain,90,2013-06-06 06:04:00
2:36 AM,66.2,62.6,88,29.96,7.0,ENE,9.2,-,0.00,Rain,Light Rain,60,2013-06-06 06:36:00
2:53 AM,64.9,63.0,93,29.91,10.0,ENE,8.1,-,0.00,,Overcast,60,2013-06-06 06:53:00
3:08 AM,64.4,62.6,94,29.94,10.0,ENE,8.1,-,N/A,,Overcast,60,2013-06-06 07:08:00
3:24 AM,64.4,62.6,94,29.94,10.0,NE,4.6,-,N/A,,Overcast,40,2013-06-06 07:24:00
3:38 AM,64.4,62.6,94,29.93,10.0,ENE,6.9,-,N/A,,Overcast,70,2013-06-06 07:38:00
3:53 AM,64.9,62.1,90,29.89,10.0,East,6.9,-,N/A,,Overcast,80,2013-06-06 07:53:00
4:28 AM,64.4,62.6,94,29.93,10.0,ENE,8.1,-,N/A,,Overcast,70,2013-06-06 08:28:00
4:53 AM,64.9,62.1,90,29.88,10.0,ENE,8.1,-,N/A,,Overcast,70,2013-06-06 08:53:00
5:41 AM,64.4,62.6,94,29.93,9.0,East,6.9,-,N/A,,Overcast,80,2013-06-06 09:41:00
5:53 AM,64.9,62.1,90,29.88,7.0,East,6.9,-,N/A,,Overcast,80,2013-06-06 09:53:00
6:05 AM,64.4,62.6,94,29.92,6.0,NE,4.6,-,N/A,,Overcast,50,2013-06-06 10:05:00
6:39 AM,64.4,62.6,94,29.92,10.0,ENE,6.9,-,N/A,,Overcast,70,2013-06-06 10:39:00
6:53 AM,64.9,63.0,93,29.88,10.0,ENE,5.8,-,N/A,,Overcast,70,2013-06-06 10:53:00
7:53 AM,66.0,63.0,90,29.89,10.0,ENE,5.8,-,N/A,,Overcast,60,2013-06-06 11:53:00
8:46 AM,66.2,64.4,94,29.94,4.0,East,4.6,-,0.00,Rain,Light Rain,100,2013-06-06 12:46:00
8:53 AM,66.0,64.0,93,29.90,2.5,ENE,5.8,-,0.00,Rain,Light Rain,70,2013-06-06 12:53:00
9:00 AM,66.2,64.4,94,29.93,3.0,East,4.6,-,0.00,,Overcast,80,2013-06-06 13:00:00
9:14 AM,66.2,64.4,94,29.93,2.0,ENE,6.9,-,0.00,,Overcast,70,2013-06-06 13:14:00
9:27 AM,66.2,64.4,94,29.93,1.8,East,5.8,-,0.00,,Overcast,80,2013-06-06 13:27:00
9:33 AM,66.2,64.4,94,29.93,2.5,East,6.9,-,0.00,,Overcast,90,2013-06-06 13:33:00
9:49 AM,66.2,64.4,94,29.94,2.0,East,5.8,-,0.00,,Overcast,90,2013-06-06 13:49:00
9:53 AM,66.9,64.9,93,29.90,3.0,East,3.5,-,0.00,,Overcast,90,2013-06-06 13:53:00
10:36 AM,66.2,64.4,94,29.94,2.0,East,4.6,-,N/A,,Overcast,100,2013-06-06 14:36:00
10:44 AM,68.0,64.4,88,29.94,1.8,East,4.6,-,N/A,,Overcast,80,2013-06-06 14:44:00
10:49 AM,68.0,66.2,94,29.94,2.5,SE,4.6,-,N/A,,Overcast,140,2013-06-06 14:49:00
10:53 AM,68.0,66.0,93,29.91,3.0,Variable,3.5,-,N/A,,Overcast,0,2013-06-06 14:53:00
11:24 AM,69.8,66.2,88,29.94,10.0,Calm,Calm,-,N/A,,Overcast,0,2013-06-06 15:24:00
11:53 AM,70.0,66.0,87,29.91,10.0,ESE,3.5,-,N/A,,Overcast,120,2013-06-06 15:53:00
12:37 PM,71.6,66.2,83,29.93,10.0,Calm,Calm,-,N/A,,Overcast,0,2013-06-06 16:37:00
12:53 PM,72.0,66.0,81,29.88,10.0,ESE,4.6,-,N/A,,Overcast,120,2013-06-06 16:53:00
1:23 PM,73.4,66.2,78,29.92,10.0,SE,5.8,-,N/A,,Overcast,140,2013-06-06 17:23:00
1:51 PM,73.4,66.2,78,29.90,10.0,Variable,4.6,-,N/A,,Overcast,0,2013-06-06 17:51:00
1:53 PM,73.9,66.9,79,29.86,10.0,WSW,3.5,-,N/A,,Overcast,240,2013-06-06 17:53:00
2:14 PM,75.2,66.2,73,29.90,10.0,SSE,5.8,-,N/A,,Mostly Cloudy,150,2013-06-06 18:14:00
2:43 PM,71.6,66.2,83,29.89,9.0,South,6.9,-,0.00,Rain,Light Rain,180,2013-06-06 18:43:00
2:53 PM,71.1,68.0,90,29.86,9.0,SSW,4.6,-,0.01,Rain,Light Rain,200,2013-06-06 18:53:00
3:08 PM,71.6,68.0,88,29.89,10.0,SSW,3.5,-,0.00,,Overcast,210,2013-06-06 19:08:00
3:32 PM,71.6,66.2,83,29.88,10.0,SSW,6.9,-,0.00,,Mostly Cloudy,210,2013-06-06 19:32:00
3:41 PM,73.4,66.2,78,29.88,10.0,SW,4.6,-,0.00,,Mostly Cloudy,220,2013-06-06 19:41:00
3:51 PM,73.4,66.2,78,29.87,10.0,Variable,5.8,-,0.00,,Mostly Cloudy,0,2013-06-06 19:51:00
3:53 PM,73.0,66.9,81,29.84,10.0,SSW,6.9,-,0.00,,Mostly Cloudy,200,2013-06-06 19:53:00
4:53 PM,73.0,66.0,79,29.83,10.0,SSW,4.6,-,N/A,,Mostly Cloudy,200,2013-06-06 20:53:00
5:53 PM,73.9,66.9,79,29.81,10.0,SSE,4.6,-,N/A,,Overcast,150,2013-06-06 21:53:00
6:53 PM,73.0,66.9,81,29.80,10.0,SSE,3.5,-,N/A,,Clear,160,2013-06-06 22:53:00
7:53 PM,72.0,66.9,84,29.79,10.0,SE,5.8,-,N/A,,Mostly Cloudy,130,2013-06-06 23:53:00
8:19 PM,71.6,66.2,83,29.83,10.0,SE,5.8,-,N/A,,Mostly Cloudy,130,2013-06-07 00:19:00
8:27 PM,69.8,66.2,88,29.83,10.0,ESE,5.8,-,N/A,,Scattered Clouds,120,2013-06-07 00:27:00
8:53 PM,70.0,66.9,90,29.79,9.0,SE,3.5,-,N/A,,Partly Cloudy,130,2013-06-07 00:53:00
9:18 PM,69.8,66.2,88,29.82,7.0,Calm,Calm,-,N/A,,Mostly Cloudy,0,2013-06-07 01:18:00
9:53 PM,69.1,66.9,93,29.79,6.0,ESE,3.5,-,N/A,,Mostly Cloudy,120,2013-06-07 01:53:00
10:07 PM,69.8,66.2,88,29.83,8.0,SE,4.6,-,N/A,,Overcast,130,2013-06-07 02:07:00
10:37 PM,69.8,66.2,88,29.83,9.0,SE,3.5,-,N/A,,Overcast,140,2013-06-07 02:37:00
10:53 PM,69.1,66.0,90,29.80,9.0,SE,4.6,-,N/A,,Overcast,140,2013-06-07 02:53:00
11:31 PM,69.8,66.2,88,29.84,10.0,ESE,4.6,-,N/A,,Overcast,110,2013-06-07 03:31:00
11:53 PM,69.1,66.0,90,29.80,10.0,East,5.8,-,N/A,,Overcast,100,2013-06-07 03:53:00
11:59 PM,69.8,66.2,88,29.83,10.0,East,5.8,-,N/A,,Overcast,100,2013-06-07 03:59:00